UPS1106 KSDF-KRFD

Flight info

Callsign UPS1106
Flight time 0h 56m
Altitude 33000
Route SPILR1 BNGIN DECEE/N0452F340 MACES QUOTE1
Aircraft A306/H-SDE3FGHIRWY/LB1

Departure

Time 2026-04-25 21:43
Airport Louisville Muhammad Ali International Airport (KSDF)

Arrival

Time 2026-04-25 22:39
Airport Chicago Rockford International Airport (KRFD)
Time Latitude Longitude Altitude Speed Heading
2026-04-25 21:17 38.16865 -85.73784 495 ft 0 kts 21°
2026-04-25 21:34 38.16864 -85.73785 495 ft 1 kts 21°
2026-04-25 21:34 38.16842 -85.73793 488 ft 4 kts
2026-04-25 21:35 38.16816 -85.73792 487 ft 4 kts 339°
2026-04-25 21:35 38.16795 -85.73774 490 ft 4 kts 300°
2026-04-25 21:35 38.16786 -85.73747 495 ft 4 kts 291°
2026-04-25 21:35 38.16783 -85.73738 495 ft 1 kts 291°
2026-04-25 21:38 38.16784 -85.73739 485 ft 1 kts 291°
2026-04-25 21:38 38.16788 -85.73753 495 ft 3 kts 291°
2026-04-25 21:39 38.16807 -85.73814 486 ft 11 kts 291°
2026-04-25 21:39 38.16838 -85.73915 485 ft 15 kts 291°
2026-04-25 21:39 38.16851 -85.74051 489 ft 15 kts 249°
2026-04-25 21:39 38.16762 -85.74078 485 ft 18 kts 165°
2026-04-25 21:40 38.16628 -85.74032 494 ft 22 kts 165°
2026-04-25 21:40 38.16475 -85.73982 483 ft 22 kts 165°
2026-04-25 21:40 38.16320 -85.73930 487 ft 26 kts 165°
2026-04-25 21:40 38.16141 -85.73871 484 ft 27 kts 165°
2026-04-25 21:41 38.15965 -85.73813 485 ft 23 kts 165°
2026-04-25 21:41 38.15853 -85.73825 485 ft 19 kts 231°
2026-04-25 21:41 38.15866 -85.73942 480 ft 14 kts 332°
2026-04-25 21:41 38.15914 -85.73959 480 ft 0 kts 346°
2026-04-25 21:42 38.15915 -85.73959 486 ft 1 kts 346°
2026-04-25 21:42 38.16004 -85.73987 482 ft 36 kts 346°
2026-04-25 21:42 38.16494 -85.74147 487 ft 107 kts 345°
2026-04-25 21:43 38.17416 -85.74450 486 ft 165 kts 345°
2026-04-25 21:43 38.18638 -85.74857 953 ft 186 kts 347°
2026-04-25 21:43 38.19872 -85.75288 1985 ft 186 kts 345°
2026-04-25 21:43 38.21161 -85.75928 2455 ft 218 kts 336°
2026-04-25 21:44 38.22580 -85.76886 2859 ft 242 kts 331°
2026-04-25 21:44 38.24074 -85.78028 3559 ft 256 kts 330°
2026-04-25 21:44 38.27175 -85.80409 5597 ft 265 kts 330°
2026-04-25 21:45 38.28790 -85.81581 6607 ft 269 kts 334°
2026-04-25 21:45 38.29358 -85.81942 6954 ft 271 kts 335°
2026-04-25 21:45 38.32230 -85.83631 8696 ft 278 kts 336°
2026-04-25 21:45 38.34013 -85.84661 9699 ft 282 kts 336°
2026-04-25 21:46 38.35797 -85.85691 10584 ft 291 kts 336°
2026-04-25 21:46 38.37691 -85.86787 11038 ft 311 kts 336°
2026-04-25 21:46 38.39742 -85.87974 11392 ft 332 kts 336°
2026-04-25 21:46 38.41908 -85.89230 11731 ft 351 kts 336°
2026-04-25 21:47 38.44187 -85.90552 12117 ft 367 kts 336°
2026-04-25 21:47 38.46534 -85.91918 12703 ft 374 kts 336°
2026-04-25 21:47 38.48917 -85.93307 13335 ft 379 kts 336°
2026-04-25 21:47 38.51330 -85.94712 14001 ft 383 kts 336°
2026-04-25 21:48 38.53764 -85.96129 14636 ft 387 kts 336°
2026-04-25 21:48 38.56187 -85.97543 15285 ft 390 kts 336°
2026-04-25 21:48 38.58670 -85.98993 15913 ft 394 kts 335°
2026-04-25 21:48 38.61173 -86.00454 16545 ft 398 kts 335°
2026-04-25 21:49 38.63703 -86.01933 17172 ft 401 kts 335°
2026-04-25 21:49 38.66261 -86.03413 17719 ft 406 kts 336°
2026-04-25 21:49 38.68883 -86.04771 18313 ft 408 kts 338°
2026-04-25 21:49 38.71527 -86.06131 18858 ft 412 kts 338°
2026-04-25 21:50 38.74157 -86.07474 19378 ft 415 kts 338°
2026-04-25 21:50 38.76834 -86.08834 19889 ft 418 kts 337°
2026-04-25 21:50 38.79570 -86.10218 20367 ft 421 kts 337°
2026-04-25 21:50 38.81416 -86.11152 20688 ft 423 kts 337°
2026-04-25 21:51 38.85057 -86.12993 21303 ft 428 kts 337°
2026-04-25 21:51 38.87837 -86.14399 21755 ft 431 kts 337°
2026-04-25 21:51 38.90621 -86.15806 22213 ft 433 kts 337°
2026-04-25 21:51 38.93444 -86.17234 22656 ft 435 kts 337°
2026-04-25 21:52 38.96266 -86.18663 23070 ft 438 kts 336°
2026-04-25 21:52 38.99068 -86.20084 23472 ft 440 kts 336°
2026-04-25 21:52 39.01921 -86.21533 23854 ft 443 kts 336°
2026-04-25 21:52 39.04798 -86.22995 24238 ft 445 kts 336°
2026-04-25 21:53 39.07687 -86.24465 24571 ft 447 kts 336°
2026-04-25 21:53 39.10582 -86.25941 24917 ft 449 kts 336°
2026-04-25 21:53 39.13493 -86.27423 25262 ft 451 kts 336°
2026-04-25 21:53 39.16418 -86.28912 25579 ft 453 kts 336°
2026-04-25 21:54 39.19355 -86.30409 25888 ft 455 kts 336°
2026-04-25 21:54 39.22259 -86.31892 26205 ft 456 kts 336°
2026-04-25 21:54 39.25220 -86.33406 26504 ft 458 kts 336°
2026-04-25 21:54 39.28190 -86.34925 26771 ft 460 kts 336°
2026-04-25 21:55 39.31169 -86.36450 27047 ft 462 kts 336°
2026-04-25 21:55 39.34153 -86.37980 27312 ft 463 kts 336°
2026-04-25 21:55 39.37157 -86.39521 27564 ft 464 kts 336°
2026-04-25 21:55 39.40158 -86.41061 27876 ft 464 kts 336°
2026-04-25 21:56 39.43155 -86.42601 28249 ft 463 kts 335°
2026-04-25 21:56 39.45139 -86.43621 28479 ft 462 kts 335°
2026-04-25 21:56 39.49085 -86.45653 28930 ft 461 kts 335°
2026-04-25 21:56 39.52064 -86.47187 29269 ft 460 kts 335°
2026-04-25 21:57 39.55032 -86.48718 29610 ft 459 kts 335°
2026-04-25 21:57 39.57996 -86.50249 29953 ft 458 kts 335°
2026-04-25 21:57 39.60945 -86.51775 30301 ft 457 kts 335°
2026-04-25 21:57 39.63896 -86.53301 30648 ft 456 kts 335°
2026-04-25 21:58 39.66840 -86.54824 30973 ft 455 kts 335°
2026-04-25 21:58 39.69774 -86.56345 31345 ft 453 kts 335°
2026-04-25 21:58 39.72643 -86.57833 31706 ft 451 kts 335°
2026-04-25 21:58 39.75568 -86.59351 32031 ft 451 kts 334°
2026-04-25 21:59 39.78483 -86.60867 32342 ft 450 kts 334°
2026-04-25 21:59 39.81385 -86.62376 32678 ft 449 kts 334°
2026-04-25 21:59 39.84279 -86.63884 32998 ft 448 kts 334°
2026-04-25 22:00 39.90051 -86.66892 33547 ft 445 kts 334°
2026-04-25 22:00 39.92921 -86.68391 33795 ft 445 kts 334°
2026-04-25 22:00 39.95760 -86.69874 33947 ft 445 kts 334°
2026-04-25 22:00 39.98590 -86.71366 33963 ft 431 kts 333°
2026-04-25 22:01 40.01227 -86.73096 33960 ft 419 kts 326°
2026-04-25 22:01 40.03678 -86.75100 33968 ft 415 kts 324°
2026-04-25 22:01 40.06867 -86.77828 33974 ft 413 kts 323°
2026-04-25 22:02 40.13286 -86.83353 33975 ft 412 kts 323°
2026-04-25 22:02 40.18047 -86.87448 33969 ft 412 kts 323°
2026-04-25 22:03 40.22832 -86.91570 33971 ft 412 kts 323°
2026-04-25 22:03 40.27621 -86.95701 33971 ft 412 kts 323°
2026-04-25 22:04 40.32408 -86.99840 33971 ft 412 kts 323°
2026-04-25 22:04 40.37155 -87.03949 33973 ft 412 kts 323°
2026-04-25 22:05 40.41935 -87.08094 33968 ft 412 kts 323°
2026-04-25 22:05 40.46712 -87.12247 33970 ft 412 kts 323°
2026-04-25 22:06 40.50959 -87.17166 33985 ft 406 kts 307°
2026-04-25 22:06 40.53689 -87.23514 33987 ft 402 kts 288°
2026-04-25 22:07 40.54959 -87.29429 33990 ft 401 kts 284°
2026-04-25 22:07 40.56560 -87.37699 33998 ft 402 kts 284°
2026-04-25 22:08 40.57943 -87.44822 33999 ft 401 kts 284°
2026-04-25 22:08 40.59316 -87.51882 33998 ft 401 kts 284°
2026-04-25 22:09 40.60694 -87.58986 33998 ft 401 kts 284°
2026-04-25 22:09 40.62065 -87.66092 34007 ft 401 kts 283°
2026-04-25 22:10 40.63435 -87.73201 34008 ft 400 kts 283°
2026-04-25 22:10 40.64788 -87.80259 34009 ft 400 kts 283°
2026-04-25 22:11 40.66149 -87.87371 34009 ft 401 kts 283°
2026-04-25 22:11 40.67505 -87.94486 34009 ft 400 kts 283°
2026-04-25 22:12 40.68857 -88.01600 34009 ft 400 kts 283°
2026-04-25 22:12 40.69755 -88.06343 33867 ft 409 kts 283°
2026-04-25 22:13 40.70908 -88.12461 33448 ft 417 kts 283°
2026-04-25 22:13 40.71609 -88.16184 33201 ft 420 kts 283°
2026-04-25 22:13 40.72316 -88.19943 32872 ft 424 kts 283°
2026-04-25 22:13 40.73027 -88.23733 32621 ft 427 kts 283°
2026-04-25 22:14 40.73739 -88.27533 32374 ft 426 kts 283°
2026-04-25 22:14 40.74447 -88.31320 32122 ft 425 kts 283°
2026-04-25 22:14 40.75152 -88.35101 31874 ft 424 kts 283°
2026-04-25 22:14 40.75853 -88.38865 31622 ft 422 kts 283°
2026-04-25 22:15 40.76315 -88.41353 31457 ft 422 kts 283°
2026-04-25 22:15 40.77236 -88.46322 31125 ft 420 kts 283°
2026-04-25 22:15 40.77926 -88.50053 30866 ft 418 kts 283°
2026-04-25 22:16 40.79298 -88.57493 30379 ft 416 kts 283°
2026-04-25 22:16 40.79980 -88.61199 30136 ft 417 kts 284°
2026-04-25 22:16 40.80493 -88.63641 29969 ft 417 kts 288°
2026-04-25 22:16 40.81673 -88.67113 29715 ft 415 kts 300°
2026-04-25 22:17 40.83409 -88.70143 29459 ft 415 kts 312°
2026-04-25 22:17 40.85634 -88.72573 29206 ft 417 kts 325°
2026-04-25 22:17 40.88245 -88.74271 28962 ft 420 kts 338°
2026-04-25 22:17 40.92032 -88.75392 28638 ft 422 kts 348°
2026-04-25 22:18 40.94937 -88.75969 28379 ft 422 kts 349°
2026-04-25 22:18 40.96894 -88.76348 28079 ft 421 kts 349°
2026-04-25 22:18 41.00715 -88.77093 27417 ft 417 kts 349°
2026-04-25 22:18 41.02616 -88.77468 27082 ft 416 kts 349°
2026-04-25 22:19 41.05472 -88.78033 26584 ft 414 kts 349°
2026-04-25 22:19 41.08308 -88.78596 26086 ft 412 kts 349°
2026-04-25 22:19 41.11113 -88.79160 25588 ft 409 kts 349°
2026-04-25 22:19 41.14851 -88.79915 24924 ft 408 kts 350°
2026-04-25 22:20 41.16743 -88.80296 24586 ft 407 kts 350°
2026-04-25 22:20 41.19534 -88.80860 24091 ft 405 kts 350°
2026-04-25 22:20 41.22312 -88.81423 23579 ft 403 kts 350°
2026-04-25 22:20 41.25025 -88.82038 23088 ft 400 kts 346°
2026-04-25 22:21 41.27645 -88.83226 22590 ft 397 kts 336°
2026-04-25 22:21 41.30162 -88.84697 22081 ft 393 kts 335°
2026-04-25 22:21 41.32632 -88.86190 21600 ft 392 kts 334°
2026-04-25 22:21 41.35125 -88.87697 21084 ft 389 kts 335°
2026-04-25 22:22 41.37589 -88.89183 20595 ft 388 kts 335°
2026-04-25 22:22 41.40040 -88.90659 20075 ft 385 kts 335°
2026-04-25 22:22 41.42478 -88.92125 19583 ft 383 kts 335°
2026-04-25 22:22 41.44864 -88.93562 19091 ft 382 kts 335°
2026-04-25 22:23 41.47277 -88.95016 18587 ft 378 kts 335°
2026-04-25 22:23 41.49585 -88.96677 18087 ft 377 kts 324°
2026-04-25 22:23 41.51479 -88.99053 17584 ft 372 kts 310°
2026-04-25 22:23 41.53124 -89.01709 17100 ft 371 kts 308°
2026-04-25 22:24 41.54726 -89.04385 16594 ft 367 kts 308°
2026-04-25 22:24 41.56318 -89.07043 16120 ft 367 kts 308°
2026-04-25 22:24 41.57906 -89.09693 15618 ft 364 kts 308°
2026-04-25 22:24 41.59462 -89.12287 15111 ft 361 kts 308°
2026-04-25 22:25 41.61024 -89.14888 14615 ft 357 kts 308°
2026-04-25 22:25 41.62570 -89.17471 14111 ft 355 kts 308°
2026-04-25 22:25 41.64104 -89.20036 13613 ft 352 kts 308°
2026-04-25 22:25 41.65628 -89.22580 13112 ft 349 kts 308°
2026-04-25 22:26 41.67142 -89.25104 12614 ft 346 kts 308°
2026-04-25 22:26 41.68642 -89.27605 12112 ft 344 kts 308°
2026-04-25 22:26 41.70130 -89.30093 11603 ft 341 kts 308°
2026-04-25 22:26 41.71603 -89.32565 11110 ft 339 kts 308°
2026-04-25 22:27 41.73040 -89.35002 10625 ft 336 kts 308°
2026-04-25 22:27 41.74478 -89.37454 10131 ft 334 kts 308°
2026-04-25 22:27 41.75909 -89.39884 9608 ft 331 kts 308°
2026-04-25 22:27 41.77186 -89.42414 9114 ft 327 kts 296°
2026-04-25 22:28 41.77750 -89.45332 8646 ft 324 kts 279°
2026-04-25 22:28 41.78354 -89.48132 8358 ft 307 kts 302°
2026-04-25 22:28 41.79775 -89.50098 7914 ft 289 kts 331°
2026-04-25 22:28 41.81621 -89.50889 7317 ft 280 kts 355°
2026-04-25 22:29 41.83545 -89.50815 6697 ft 274 kts 11°
2026-04-25 22:29 41.85364 -89.50128 6066 ft 271 kts 23°
2026-04-25 22:29 41.87069 -89.49104 5455 ft 266 kts 26°
2026-04-25 22:30 41.90335 -89.47099 3805 ft 255 kts 25°
2026-04-25 22:30 41.91963 -89.46124 3237 ft 257 kts 25°
2026-04-25 22:30 41.93592 -89.45169 3014 ft 255 kts 25°
2026-04-25 22:30 41.94670 -89.44541 2985 ft 255 kts 25°
2026-04-25 22:31 41.96825 -89.43294 2981 ft 254 kts 24°
2026-04-25 22:31 41.98450 -89.42365 2982 ft 254 kts 24°
2026-04-25 22:31 42.00070 -89.41428 2984 ft 253 kts 25°
2026-04-25 22:31 42.01672 -89.40494 2981 ft 250 kts 24°
2026-04-25 22:32 42.03279 -89.39574 2984 ft 252 kts 24°
2026-04-25 22:32 42.04890 -89.38653 2984 ft 252 kts 24°
2026-04-25 22:32 42.06421 -89.37778 2952 ft 221 kts 24°
2026-04-25 22:32 42.07724 -89.37037 2956 ft 193 kts 24°
2026-04-25 22:33 42.08930 -89.36343 2983 ft 186 kts 25°
2026-04-25 22:33 42.10102 -89.35661 2990 ft 177 kts 26°
2026-04-25 22:33 42.11032 -89.34722 2986 ft 163 kts 49°
2026-04-25 22:33 42.11665 -89.33465 2987 ft 162 kts 60°
2026-04-25 22:34 42.12144 -89.32178 2985 ft 146 kts 63°
2026-04-25 22:34 42.12557 -89.30968 2978 ft 140 kts 64°
2026-04-25 22:34 42.12961 -89.29775 2988 ft 139 kts 64°
2026-04-25 22:34 42.13367 -89.28589 2990 ft 140 kts 64°
2026-04-25 22:35 42.13756 -89.27453 3021 ft 130 kts 64°
2026-04-25 22:35 42.14072 -89.26531 3026 ft 123 kts 63°
2026-04-25 22:35 42.14197 -89.26169 3023 ft 123 kts 63°
2026-04-25 22:35 42.14556 -89.25124 2870 ft 123 kts 63°
2026-04-25 22:36 42.14913 -89.24070 2698 ft 124 kts 63°
2026-04-25 22:36 42.15275 -89.23006 2518 ft 125 kts 63°
2026-04-25 22:36 42.15640 -89.21935 2359 ft 126 kts 63°
2026-04-25 22:36 42.16007 -89.20856 2193 ft 128 kts 63°
2026-04-25 22:37 42.16382 -89.19756 2014 ft 131 kts 67°
2026-04-25 22:37 42.16761 -89.18639 1846 ft 131 kts 66°
2026-04-25 22:37 42.17135 -89.17541 1683 ft 130 kts 66°
2026-04-25 22:37 42.17513 -89.16442 1505 ft 129 kts 65°
2026-04-25 22:38 42.17888 -89.15335 1318 ft 129 kts 63°
2026-04-25 22:38 42.18261 -89.14219 1169 ft 132 kts 64°
2026-04-25 22:38 42.18640 -89.13108 991 ft 129 kts 64°
2026-04-25 22:38 42.19015 -89.12010 804 ft 128 kts 64°
2026-04-25 22:39 42.19377 -89.10957 736 ft 113 kts 65°
2026-04-25 22:39 42.19663 -89.10117 743 ft 87 kts 65°
2026-04-25 22:39 42.19883 -89.09471 746 ft 62 kts 66°
2026-04-25 22:39 42.20014 -89.09082 748 ft 31 kts 65°
2026-04-25 22:40 42.20083 -89.08928 746 ft 12 kts 26°
2026-04-25 22:40 42.20145 -89.08947 746 ft 8 kts 310°
2026-04-25 22:40 42.20152 -89.09019 748 ft 10 kts 257°
2026-04-25 22:40 42.20119 -89.09124 745 ft 13 kts 246°
2026-04-25 22:41 42.20078 -89.09252 746 ft 18 kts 246°
2026-04-25 22:41 42.20028 -89.09400 745 ft 12 kts 245°
2026-04-25 22:41 42.19983 -89.09531 744 ft 18 kts 244°
2026-04-25 22:41 42.19921 -89.09705 743 ft 22 kts 245°
2026-04-25 22:42 42.19868 -89.09859 742 ft 13 kts 245°
2026-04-25 22:42 42.19827 -89.09978 742 ft 18 kts 245°
2026-04-25 22:42 42.19776 -89.10138 741 ft 12 kts 255°
2026-04-25 22:42 42.19807 -89.10215 740 ft 11 kts 346°
2026-04-25 22:43 42.19875 -89.10175 738 ft 9 kts 15°
2026-04-25 22:43 42.19925 -89.10182 740 ft 3 kts 334°
2026-04-25 22:43 42.19936 -89.10200 739 ft 3 kts 294°
2026-04-25 22:43 42.19931 -89.10220 739 ft 0 kts 244°